Location: Colombeix
(45.9037°N, 1.7280°E)
Time: 20:16:32
(UTC+00:00)

Daily predictions for brighter satellites

Satellite Brightness Start Highest point End
(mag) Time Altitude Azimuth Time Altitude Azimuth Time Altitude Azimuth
H-2A R/B 3.8 19:10:03 10° SSW 19:14:36 34° W 19:19:07 10° NNW
Cosmos 2219 Rocket 2.7 19:09:29 10° NNW 19:14:59 46° ENE 19:20:25 10° SE
SL-16 R/B 3.9 19:09:55 10° NW 19:15:03 35° WSW 19:20:07 10° S
Cosmos 44 4.3 19:11:02 10° SSE 19:15:13 26° ESE 19:19:35 10° NE
ERS-2 2.0 19:12:05 10° NNE 19:15:45 74° ESE 19:19:21 10° S
Resurs 01 Rocket 3.2 19:13:38 10° ESE 19:16:44 19° ENE 19:19:52 10° NNE
Cosmos 1455 3.1 19:15:44 10° SSE 19:18:56 27° E 19:22:08 10° NNE
Cosmos 1825 Rocket 3.6 19:15:19 10° N 19:19:43 86° E 19:24:07 10° S
SAR-Lupe-4 3.7 19:17:23 10° NNE 19:21:00 82° WNW 19:24:34 10° SSW
ATLAS 5 CENTAUR R/B 3.6 19:18:15 10° W 19:21:52 30° NW 19:25:56 10° NNE
Resurs 1-3 4.3 19:23:58 10° SE 19:27:59 36° ENE 19:32:01 10° N
Cosmos 1758 Rocket 4.5 19:24:03 10° NNW 19:28:25 54° W 19:32:46 10° S
Lacrosse 5 rocket 3.3 19:26:06 10° W 19:29:40 29° NNW 19:33:25 10° NE
Cosmos 2034 Rocket 4.1 19:24:25 10° S 19:30:38 89° E 19:36:58 10° N
ATLAS 5 CENTAUR R/B 0.6 19:29:34 10° NW 19:31:26 53° NE 19:33:14 13° SE
Abrixas rocket 3.2 19:31:58 10° S 19:32:30 12° SSE 19:32:30 12° SSE
Nadezhda 4 Rocket 4.2 19:26:46 10° N 19:33:07 83° W 19:39:21 10° S
Cosmos 405 Rocket 4.2 19:31:34 10° NNE 19:34:47 22° ENE 19:37:21 13° ESE
In-Cosmos 22 Rocket 4.4 19:32:32 10° NNW 19:38:24 83° W 19:44:12 10° S
Cosmos 2237 Rocket 3.4 19:36:47 10° N 19:41:31 27° NE 19:45:35 13° ESE
SJ-6B 2.6 19:37:52 10° SSE 19:41:35 88° ENE 19:45:22 10° NNW
BREEZE-M DEB (TANK) 3.6 19:37:22 10° WSW 19:42:33 83° S 19:47:35 10° E
Exosat Rocket 4.1 19:36:00 10° NNW 19:42:37 54° ENE 19:47:11 13° SE
Meteor 2-10 Rocket 3.6 19:37:25 10° S 19:42:38 85° E 19:48:07 10° NNE
BREEZE-M DEB (TANK) 3.6 19:41:18 10° WSW 19:44:15 89° N 19:51:39 10° ENE
SL-8 R/B 3.7 19:40:04 10° WNW 19:44:55 85° NNE 19:48:58 15° ESE
MOS 1 4.3 19:39:58 10° SSE 19:45:34 71° ENE 19:51:12 10° N
Cosmos 405 2.8 19:45:23 10° S 19:48:50 84° E 19:52:19 10° NNE
Cosmos 2026 Rocket 4.0 19:43:29 10° N 19:49:32 65° E 19:55:36 10° SSE
OBJECT-B 1.0 19:46:48 10° S 19:50:00 72° W 19:53:15 10° NNW
IRS-1A Rocket 4.3 19:44:53 10° SSE 19:50:26 78° ENE 19:56:08 10° NNW
BREEZE-M DEB (TANK) 4.0 19:49:44 10° WSW 19:53:44 74° NNW 20:08:33 10° ENE
NOSS 3-4 (A) 4.1 19:48:28 10° SW 19:54:14 57° NW 20:00:30 10° NE
NOSS 3-4 (C) 4.1 19:48:34 10° SW 19:54:21 58° NW 20:00:36 10° NE
Cosmos 1892 3.4 19:52:22 10° NNW 19:56:04 54° W 19:59:45 10° S
Cosmos 2227 Rocket 3.6 19:57:04 16° ESE 19:57:39 16° E 20:01:00 10° ENE
Cosmos 1627 Rocket 4.4 19:53:30 10° N 19:59:40 81° E 20:05:51 10° S
Cosmos 2098 Rocket 4.5 19:53:32 10° N 20:00:37 82° W 20:08:02 10° S
Cosmos 2251 Rocket 3.6 19:56:00 10° S 20:01:14 58° ESE 20:06:29 10° NNE
Cosmos 389 Rocket 3.4 20:00:14 22° SE 20:01:29 28° E 20:04:34 10° NNE
Cosmos 2297 Rocket 3.2 20:02:12 17° SE 20:04:50 24° ESE 20:09:15 10° NE
Cosmos 2333 Rocket 2.5 19:59:39 10° NNW 20:05:24 68° WSW 20:10:56 11° SSE
Cosmos 1634 Rocket 4.0 19:59:42 10° S 20:05:59 79° E 20:12:15 10° N
BREEZE-M DEB (TANK) 2.5 20:04:47 10° WNW 20:07:09 42° N 20:08:17 23° ENE
Cosmos 2219 4.3 20:05:52 20° SE 20:07:31 23° E 20:11:47 10° NE
SPOT 3 Rocket 3.7 20:03:45 17° SE 20:07:37 56° ENE 20:12:41 10° N
ATLAS 2AS CENTAUR R/B 3.3 19:59:50 10° SW 20:07:46 76° NW 20:15:34 10° NE
Cosmos 1825 2.1 20:05:04 10° N 20:08:52 87° W 20:11:59 15° S
ARIANE 5 R/B 4.0 20:09:19 19° E 20:10:53 23° ENE 20:14:22 10° NNE
Ariane Rocket 3.2 20:08:03 10° S 20:13:05 71° WSW 20:18:09 10° NNW
Cosmos 2322 4.4 20:10:47 10° NW 20:16:16 53° WSW 20:21:41 10° S
Cosmos 1408 3.9 20:13:30 10° NNW 20:16:49 37° W 20:20:07 10° SSW
Orbus 7S? 3.4 20:16:04 10° WSW 20:18:51 71° NW 20:23:59 10° NE
CZ-4C R/B 4.3 20:16:01 10° W 20:20:34 29° NNW 20:25:58 10° NNE
RESURS DK-1 2.5 20:17:01 10° SSW 20:21:08 78° WNW 20:25:18 10° NNE
Landsat 7 3.9 20:20:37 25° SE 20:23:16 60° ENE 20:27:58 10° N
USA 245 4.0 20:24:37 31° E 20:25:28 35° ENE 20:28:38 10° N
Cosmos-2242 4.0 20:25:50 27° E 20:26:06 27° E 20:29:46 10° NNE
Meteor 2-1 Rocket 4.4 20:21:42 10° SSW 20:27:32 84° W 20:33:30 10° N
Cosmos 2058 3.5 20:25:49 10° NNW 20:29:55 55° W 20:33:18 14° S
Cosmos 1655 Rocket 4.2 20:28:28 10° N 20:34:39 55° ENE 20:37:46 29° SE
SL-16 R/B 3.5 20:30:47 10° N 20:35:32 26° NE 20:37:53 20° E
Cosmos 614 Rocket 3.8 20:30:46 10° SSW 20:35:54 82° ESE 20:41:02 10° NNE
Cosmos 1980 3.8 20:31:28 10° NNW 20:37:09 66° ENE 20:39:45 33° SE
BREEZE-M DEB (TANK) 4.2 20:34:00 10° W 20:38:23 71° N 20:55:16 10° E
IRIDIUM 104 4.3 20:40:01 18° S 20:43:57 89° E 20:49:12 10° N
Cosmos 2151 3.1 20:40:05 10° N 20:44:21 59° ENE 20:45:17 47° SE
COSMOS 2428 3.6 20:40:22 10° NW 20:45:49 46° WSW 20:49:50 18° S
Cosmos 2344 3.7 20:38:36 10° SW 20:46:05 77° NW 20:54:04 10° NE
Meteor 2-3 Rocket 3.9 20:40:44 10° N 20:46:24 54° ENE 20:48:26 36° SE
FALCON 9 DEB 3.5 20:44:40 10° WSW 20:48:04 64° NNW 20:49:45 27° NE
Cosmos 1076 Rocket 3.7 20:43:48 10° NNW 20:48:09 69° W 20:50:07 31° S
ATLAS 3B R/B 3.1 20:41:58 10° NW 20:48:54 63° WSW 20:53:12 26° SSE
USA 215 3.2 20:45:38 30° ESE 20:49:08 83° NE 20:55:43 10° NW
Cosmos 1812 Rocket 3.5 20:47:57 28° S 20:50:17 89° E 20:54:46 10° N
Cosmos 192 4.3 20:45:36 10° NNW 20:50:35 85° WSW 20:52:27 39° SSE
Resurs 01 Rocket 2.3 20:50:18 23° SSW 20:52:51 51° W 20:57:14 10° NNW
IRIDIUM 114 4.4 20:49:08 18° S 20:53:06 76° W 20:58:21 10° N
Cosmos 1818 4.0 20:48:32 10° SW 20:53:55 64° NW 20:59:23 10° NNE
ERS-1 Rocket 3.4 20:54:40 39° E 20:55:41 44° ENE 21:00:28 10° N
Cosmos 44 4.2 20:51:08 10° SW 20:56:09 54° NW 21:01:27 10° NNE
Cosmos 407 Rocket 3.3 20:53:35 29° S 20:56:11 67° ESE 21:01:20 10° NNE
Cosmos 2219 Rocket 3.7 20:53:50 10° NW 20:58:43 30° WSW 21:02:59 13° SSW
Okean 3 Rocket 4.3 20:55:04 10° N 20:59:17 37° ENE 20:59:21 37° ENE
NOSS 0 Rocket 4.2 20:53:54 10° NNW 21:00:03 64° WSW 21:03:07 30° S
Meteor 2-21 4.4 20:56:24 10° N 21:02:30 84° W 21:05:28 32° S
Cosmos 1766 Rocket 4.2 20:59:35 10° N 21:03:29 39° ENE 21:03:29 39° ENE
Cosmos 1633 2.5 21:00:29 10° NNW 21:04:05 75° W 21:04:10 75° WSW
CARTOSAT-1 3.5 21:04:22 61° ESE 21:04:46 65° ENE 21:09:04 10° N
IGS 5A 4.4 21:04:09 28° SSW 21:05:50 42° W 21:09:49 10° NNW
Lacrosse 5 rocket 3.9 21:06:57 10° NW 21:09:58 18° N 21:13:04 10° NE
Cosmos 405 Rocket 4.4 21:07:15 10° NNW 21:10:48 30° W 21:12:30 21° SW
Cosmos 1023 Rocket 4.3 21:12:04 36° SSW 21:14:12 87° ESE 21:19:19 10° NNE
COSMOS 2455 3.6 21:18:15 33° E 21:18:15 33° E 21:22:25 10° NE
Cosmos 1869 4.3 21:18:39 35° NE 21:18:39 35° NE 21:21:15 10° NNE
SPOT 5 2.6 21:19:30 67° E 21:19:42 68° ENE 21:24:23 10° N
Cosmos 1140 Rocket 3.4 21:18:31 37° SSW 21:20:38 86° WNW 21:25:48 10° NNE
Spot 2 Rocket 3.6 21:21:43 51° SSW 21:22:57 72° WSW 21:28:02 10° NNW
Cosmos 2237 Rocket 2.5 21:20:25 10° NNW 21:25:58 58° WSW 21:27:26 44° SSW
Terra 1.9 21:28:59 60° ENE 21:28:59 60° ENE 21:33:39 10° N
Cosmos 2082 4.0 21:39:13 48° ENE 21:39:13 48° ENE 21:43:44 10° NE
Cosmos 2263 Rocket 4.3 21:42:46 12° ENE 21:42:46 12° ENE 21:43:26 10° ENE
Cosmos 2227 Rocket 2.2 21:38:45 39° SW 21:40:57 81° WNW 21:46:40 10° NNE
Meteor 2-8 Rocket 4.3 21:42:18 57° S 21:43:40 89° E 21:49:50 10° N
Cosmos 468 Rocket 4.4 21:38:52 10° NNW 21:43:44 50° ENE 21:43:44 50° ENE
ARIANE 5 R/B 3.6 21:46:52 39° WSW 21:47:08 39° W 21:51:17 10° NNW
Cosmos 2297 Rocket 2.7 21:43:48 15° SW 21:48:28 57° WNW 21:54:03 10° NNE
Cosmos 1190 Rocket 4.5 21:47:49 34° SW 21:49:54 57° WNW 21:55:04 10° NNE
Cosmos 2219 3.6 21:47:37 22° SW 21:51:12 59° WNW 21:56:47 10° NNE
H-2A R/B 4.3 21:50:36 10° NNE 21:53:41 48° N 21:53:41 48° N
Timation 2 Rocket 4.4 21:54:58 16° SW 22:00:18 64° WNW 22:06:36 10° NNE
BREEZE M DEB (TANK) 4.3 21:59:04 12° WSW 22:03:18 84° SSE 22:20:24 10° ENE
Cosmos 1763 Rocket 3.7 21:58:29 10° NNW 22:02:58 63° NNE 22:02:58 63° NNE
Nadezhda 2 Rocket 4.3 21:58:56 10° N 22:05:15 88° W 22:05:44 77° S
Cosmos 676 Rocket 4.2 22:07:09 66° WNW 22:07:18 66° WNW 22:12:29 10° NNE
Cosmos 1408 Rocket 4.4 22:03:01 10° N 22:06:07 46° NNW 22:06:07 46° NNW
SL-16 R/B 2.5 22:14:27 10° NNW 22:19:46 59° W 22:19:46 59° W
Meteor 2-15 Rocket 4.3 22:22:07 81° W 22:22:14 82° W 22:28:21 10° N
Cosmos 540 Rocket 4.1 22:17:55 10° NNW 22:22:04 49° NNE 22:22:04 49° NNE
NOSS 3-1 (C) 4.1 22:19:39 10° NW 22:27:05 75° NE 22:28:43 60° ESE
SL-08 ROCKET BODY 4.3 22:21:59 10° N 22:27:52 83° NNW 22:27:52 83° NNW
Cosmos 2221 4.0 22:30:07 34° N 22:30:07 34° N 22:32:41 10° N
SL-08 R/B 4.4 22:25:39 10° N 22:31:43 83° WNW 22:31:43 83° WNW
USA 215 4.3 22:32:58 31° WSW 22:32:58 31° WSW 22:38:19 10° WNW
Cosmos 44 Rocket 4.3 22:36:36 45° NNE 22:36:36 45° NNE 22:40:16 10° NNE
Cosmos 1386 Rocket 4.5 22:29:06 10° N 22:34:38 68° NE 22:34:38 68° NE
Aureole 1 Rocket 4.4 22:38:08 45° NE 22:38:08 45° NE 22:41:25 10° NNE
Cosmos 1553 Rocket 3.9 22:39:11 78° NW 22:39:11 78° NW 22:45:04 10° N
ALOS 2 4.4 22:49:56 28° NNE 22:49:56 28° NNE 22:52:18 10° N
Cosmos 1943 3.7 22:44:13 10° NNW 22:48:59 55° NNE 22:48:59 55° NNE
Lacrosse 5 rocket 3.4 22:46:30 10° NW 22:49:47 27° N 22:49:47 27° N
COSMOS 2455 3.7 23:01:18 38° W 23:02:48 45° NW 23:08:34 10° NNE
SeaSat 1 3.4 23:00:39 10° NNE 23:04:24 45° NNW 23:04:24 45° NNW
Terra 4.1 23:07:51 16° WNW 23:07:51 16° WNW 23:10:09 10° NW
Cosmos 2315 Rocket 4.3 23:10:31 59° NE 23:10:31 59° NE 23:15:52 10° NNE
Cosmos 2263 Rocket 2.9 23:24:26 51° N 23:24:26 51° N 23:28:39 10° NNE
USA 281 3.7 23:33:03 50° ENE 23:33:34 51° ENE 23:39:54 10° NNW
USA 229 DEB 3.9 23:26:50 10° NW 23:33:33 69° W 23:33:33 69° W
USA 229 3.9 23:26:55 10° NW 23:33:40 69° W 23:33:40 69° W
Cosmos 1844 Rocket 4.3 23:39:31 24° ENE 23:39:31 24° ENE 23:42:10 10° NE
Cosmos 2074 Rocket 4.4 23:37:52 10° N 23:43:22 55° NE 23:43:22 55° NE
